Regional Weather Roundup
Issued by NWS

Home | Current Version | Previous Version | Text Only | Print | Product List | Glossary On
Versions: 1 2 3 4 5 6 7 8 9 10 11 12 13 14 15 16 17 18 19 20 21 22 23 24 25 26 27 28 29 30 31 32 33 34 35 36 37 38 39 40 41 42 43 44 45 46 47 48 49 50
000
ASUS43 KFSD 190510
RWRSD

WEATHER ROUNDUP FOR SOUTH DAKOTA
NATIONAL WEATHER SERVICE SIOUX FALLS SD
1200 AM CDT SUN APR 19 2015

NOTE: "FAIR" INDICATES FEW OR NO CLOUDS BELOW 12,000 FEET WITH NO
SIGNIFICANT WEATHER AND/OR OBSTRUCTIONS TO VISIBILITY.


SDZ001>005-009-010-012>017-190600-
NORTHWEST AND NORTH CENTRAL SOUTH DAKOTA

CITY           SKY/WX    TMP DP  RH WIND       PRES   REMARKS
BUFFALO          N/A     45  33  63 NW18      29.96R
FAITH            N/A     46  44  93 NW16G22   29.94S
MOBRIDGE       RAIN      49  46  90 NW10      29.86R
$$

SDZ012>016-024>037-041>051-057-063-072>074-190600-
SOUTHWEST AND SOUTH CENTRAL SOUTH DAKOTA

CITY           SKY/WX    TMP DP  RH WIND       PRES   REMARKS
RAPID CTY ARPT LGT RAIN  45  42  89 N28G38    29.97R
PIERRE         LGT RAIN  46  45  96 NW18      29.84S FOG
CUSTER         CLOUDY    38  33  82 NE13G23   29.96R
ELLSWORTH AFB  LGT RAIN  45  43  92 N20       29.97R
PHILIP         CLOUDY    47  43  86 NW12      29.92R
PINE RIDGE     LGT RAIN  46  42  86 NW10      29.95R FOG
SPEARFISH      CLOUDY    41  36  81 NW13      30.06S
WINNER         MOCLDY    50  46  86 W9        29.85S
$$

SDZ004>011-016>023-039-040-190600-
NORTHEAST SOUTH DAKOTA

CITY           SKY/WX    TMP DP  RH WIND       PRES   REMARKS
ABERDEEN       LGT RAIN  52  50  93 N7        29.79F
WATERTOWN      LGT RAIN  53  51  93 E7        29.77F FOG
BROOKINGS      CLOUDY    55  54  94 S9        29.78F
SISSETON         N/A     52  51  97 E8        29.79F
$$

SDZ017-020-022-023-036>040-048>070-190600-
SOUTHEAST SOUTH DAKOTA

CITY           SKY/WX    TMP DP  RH WIND       PRES   REMARKS
SIOUX FALLS    CLOUDY    57  55  93 S8        29.78F
HURON          CLOUDY    55  54  96 W5        29.77F FOG
CHAMBERLAIN    CLOUDY    51  50  99 W12       29.81F FOG
MITCHELL       CLOUDY    57  56  96 W5        29.79F FOG
YANKTON        MOCLDY    55  54  94 E5        29.77F VSB 1/4
$$

ABBREVIATIONS USED IN REMARKS
   TC - TEMPERATURE IN CELSIUS
  WCI - WIND CHILL INDEX
   HX - HEAT INDEX
  VSB - VISIBILITY



USA.gov is the U.S. government's official web portal to all federal, state and local government web resources and services.